Regional Weather Roundup
Issued by NWS

Home | Current Version | Previous Version | Text Only | Print | Product List | Glossary On
Versions: 1 2 3 4 5 6 7 8 9 10 11 12 13 14 15 16 17 18 19 20 21 22 23 24 25 26 27 28 29 30 31 32 33 34 35 36 37 38 39 40 41 42 43 44 45 46 47 48 49
000
ASUS43 KDMX 040307
RWRIA

WEATHER ROUNDUP FOR IOWA
NATIONAL WEATHER SERVICE DES MOINES IA
1000 PM CDT FRI JUL 03 2015

NOTE: "FAIR" INDICATES FEW OR NO CLOUDS BELOW 12,000 FEET WITH NO
SIGNIFICANT WEATHER AND/OR OBSTRUCTIONS TO VISIBILITY.

* - THESE STATIONS ARE NOT NWS STATIONS...THUS NOT UNDER NWS
QUALITY CONTROL.  THEY ALSO DO NOT REPORT WEATHER SUCH
AS PRECIPITATION OR FOG.

IAZ001>003-012>014-020>022-031>034-043>046-040400-
   NORTHWEST IOWA

CITY           SKY/WX    TMP DP  RH WIND       PRES   REMARKS
CARROLL *      CLOUDY    64  61  88 W5        29.97R
CHEROKEE *     CLEAR     63  61  94 CALM      29.97R
DENISON *      CLOUDY    61  59  94 E3        29.96R
LE MARS *        N/A     66  63  88 CALM      29.97R
ORANGE CITY *  CLEAR     66  61  82 CALM      29.96S
SHELDON *      CLEAR     64  64 100 SW5       29.95R
SIOUX CITY     CLEAR     68  60  75 E6        29.96R
SPENCER        CLEAR     65  58  78 SW6       29.96R
STORM LAKE *   CLEAR     68  59  73 SW3       29.98S
$$

IAZ055>058-069>071-079>083-090>094-040400-
   SOUTHWEST IOWA

CITY           SKY/WX    TMP DP  RH WIND       PRES   REMARKS
ATLANTIC *     CLOUDY    63  59  88 CALM      29.98R
AUDUBON *      CLEAR     61  57  88 CALM      29.99R
CLARINDA *     CLEAR     64  63  94 CALM      29.99R
COUNCIL BLFS * MOCLDY    68  59  73 CALM      29.98R
CRESTON *      CLEAR     66  59  77 CALM      29.98R
HARLAN  *      CLEAR     61  61 100 CALM      30.01R
LAMONI         CLEAR     69  57  65 CALM      29.97R
RED OAK *      CLEAR     64  57  77 CALM      29.97R
SHENANDOAH *   CLEAR     64  61  88 CALM      29.97R
$$

IAZ047>049-059>061-072>074-084-040400-
   CENTRAL IOWA

CITY           SKY/WX    TMP DP  RH WIND       PRES   REMARKS
AMES           CLEAR     63  59  87 W3        29.95R FOG
ANKENY *       CLEAR     63  61  94 CALM      29.96R
CHARITON *     CLOUDY    68  59  73 CALM      29.97R
DES MOINES     PTCLDY    71  59  65 S5        29.96R
GRINNELL*      CLEAR     64  57  77 CALM      29.97R
KNOXVILLE *    CLEAR     66  57  72 S3        29.95R
MARSHALLTOWN   CLEAR     66  60  81 W3        29.95R
PELLA *        CLEAR     64  63  94 CALM      29.97R
PERRY *          N/A     64  61  88 CALM      29.97R
$$

IAZ004>006-015-016-023>025-035-036-040400-
   NORTH CENTRAL IOWA

CITY           SKY/WX    TMP DP  RH WIND       PRES   REMARKS
ALGONA *       CLEAR     66  59  77 SW7       29.96R
CLARION *      CLEAR     63  55  77 CALM      29.96R
ESTHERVILLE    CLEAR     64  59  83 SW7       29.95R
FORT DODGE *   CLEAR     63  54  72 CALM      29.97R
MASON CITY     CLEAR     64  57  78 CALM      29.96S
FOREST CITY *  CLEAR     61  59  94 CALM      29.96R
IOWA FALLS *     N/A     63  59  88 CALM      29.97R
$$

IAZ007>011-017>019-026>030-037>042-050>054-066-040400-
   NORTHEAST IOWA

CITY           SKY/WX    TMP DP  RH WIND       PRES   REMARKS
CEDAR RAPIDS   CLEAR     67  58  72 NW3       29.94R
CHARLES CITY * CLEAR     63  63 100 CALM      29.96R
CLINTON *      CLEAR     64  57  77 N7        29.97R
DECORAH *        N/A    N/A N/A N/A MISG        N/A
DUBUQUE        CLEAR     61  55  81 CALM      29.95R
MONTICELLO *   CLEAR     61  57  88 CALM      29.95R
OELWEIN *      CLEAR     64  61  88 SW3       29.96R
WATERLOO       CLEAR     67  61  81 CALM      29.94R
$$

IAZ064-065-067-068-078-040400-
   EAST CENTRAL IOWA

CITY           SKY/WX    TMP DP  RH WIND       PRES   REMARKS
DAVENPORT      CLEAR     65  60  84 N5        29.95R
IOWA CITY      CLEAR     65  58  78 CALM      29.95R
MT. PLEASANT * CLEAR     68  59  73 CALM      29.95R
MUSCATINE *    CLEAR     66  61  82 CALM      29.94S
QUAD CITIES    CLEAR     66  60  81 CALM      29.93R
$$

IAZ062-063-075>077-085>089-095>099-040400-
   SOUTHEAST IOWA

CITY           SKY/WX    TMP DP  RH WIND       PRES   REMARKS
BURLINGTON     CLEAR     65  62  90 CALM      29.94R
FAIRFIELD *    CLEAR     63  59  88 N5        29.95R
FORT MADISON * CLEAR     66  63  88 CALM      29.96R
KEOKUK *       CLEAR     68  63  83 CALM      29.94R
OSKALOOSA *      N/A     63  57  82 CALM      29.97R
CENTERVILLE *  CLEAR     66  61  82 N5        29.98R
OTTUMWA        CLEAR     64  59  83 NW5       29.94R
WASHINGTON *   CLEAR     63  59  88 CALM      29.96R
$$

ABBREVIATIONS USED IN REMARKS
   TC - TEMPERATURES IN CELSIUS
  WCI - WIND CHILL INDEX
   HX - HEAT INDEX
  VSB - VISIBILITY
$$




USA.gov is the U.S. government's official web portal to all federal, state and local government web resources and services.